Wind_Speed
5 5 6 6 6 6 3 0 1 1 1 2 1 1 2 2 1 1 4 4 0 2 1 2 4 2 2 3 4 5 5 2 2 0 1 4 8 15 15 18 25 24 22 22 23 24 25 28 27 27 26 26 26 26 25 27 27 26 26 26 27 27 26 24 23 22 22 22 22 21 21 22 21 20 20 19 20 19 18 18 18 18 18 17 17 18 17 16 15 15 14 14 14 13 13 14 14
6 6 7 7 5 3 2 1 1 1 2 3 2 2 1 1 2 1 5 6 1 2 2 5 8 6 5 5 5 4 5 5 4 3 4 9 13 13 15 21 24 22 23 22 23 24 24 27 27 27 27 27 27 26 25 26 27 26 26 25 25 25 24 24 23 23 23 22 21 21 21 21 20 19 19 19 20 20 20 19 17 16 16 16 17 19 18 17 16 15 15 15 14 13 14 14 14
6 7 8 8 4 1 1 0 1 2 3 4 3 2 2 2 4 2 5 4 2 3 1 3 5 5 2 3 4 3 3 4 5 5 6 12 12 12 17 20 22 22 22 21 22 22 23 26 27 27 27 27 27 26 26 26 26 27 27 27 26 26 25 25 24 23 23 22 21 20 20 20 19 19 18 18 20 20 20 19 18 15 14 15 16 18 18 17 16 15 15 15 14 14 14 14 15
6 7 8 6 2 0 2 1 1 2 4 4 2 2 3 3 4 2 3 5 3 3 1 1 3 4 3 5 3 2 3 3 5 5 6 10 10 14 19 19 21 22 21 21 22 21 21 25 27 27 27 27 26 26 26 26 27 27 28 28 27 27 26 25 24 23 22 21 19 19 19 19 19 18 18 18 19 18 18 19 19 16 14 14 16 16 16 16 16 15 14 15 15 15 14 15 16
6 6 6 3 1 1 1 1 1 2 5 2 0 2 4 3 2 2 3 6 5 2 2 2 3 2 4 6 2 1 3 4 6 5 6 9 13 17 19 20 20 20 21 21 21 21 21 25 27 27 27 26 26 26 26 26 26 27 27 27 27 26 26 25 24 22 21 19 18 19 18 18 18 18 17 18 19 18 17 18 19 17 14 13 14 15 15 16 15 15 14 14 14 15 15 15 16
7 6 3 1 1 0 1 2 2 5 4 2 2 2 4 3 3 4 5 6 6 2 3 2 3 4 5 4 2 2 2 1 4 5 6 12 16 18 19 20 19 19 20 21 21 20 21 25 27 27 26 26 26 25 25 26 25 26 26 26 26 25 25 24 24 22 20 18 17 18 17 17 17 17 16 17 18 16 17 18 17 15 14 13 14 13 14 14 14 14 13 14 14 14 15 15 15
8 5 2 2 2 1 2 3 4 5 2 3 3 3 1 4 3 5 5 4 2 2 2 3 6 7 5 2 3 3 5 3 3 7 9 15 18 18 18 18 19 19 19 20 20 19 20 24 26 26 26 25 25 25 25 25 24 24 24 25 25 24 24 24 24 22 20 18 16 17 16 16 16 16 15 15 15 15 15 16 14 13 13 13 12 12 13 13 13 14 12 13 14 14 14 14 14
5 2 1 1 2 1 2 2 3 3 1 2 4 5 7 6 3 4 4 2 1 2 4 7 7 5 3 2 2 3 5 2 7 11 13 16 18 18 17 18 19 18 19 20 20 20 21 23 24 24 25 25 24 24 25 24 23 22 22 23 24 24 23 23 23 22 20 18 16 16 16 15 15 15 14 13 14 14 14 13 12 12 13 12 11 11 12 12 13 14 13 12 12 12 13 13 12
3 1 0 1 1 0 1 2 2 1 3 4 4 7 9 7 4 5 5 4 4 3 7 8 3 2 5 4 3 2 4 6 12 15 14 16 17 17 16 17 18 18 20 20 21 21 22 23 23 22 22 22 22 22 22 22 22 21 20 21 22 23 22 22 22 21 19 17 16 15 15 14 14 14 13 13 13 13 12 11 10 11 11 11 11 11 10 11 11 13 12 12 11 11 11 11 10
1 2 1 1 2 2 2 2 1 1 4 5 5 9 9 6 4 5 6 6 6 6 6 5 2 6 9 6 3 2 2 9 15 15 14 15 16 16 16 16 17 19 20 21 22 22 23 24 24 24 22 20 20 21 21 21 21 21 21 20 20 21 22 21 19 19 18 17 16 15 14 13 13 13 13 12 12 12 10 10 10 10 10 10 10 10 9 10 11 12 12 12 11 11 10 9 8
1 1 1 1 2 3 3 2 1 2 4 4 5 7 6 5 4 4 6 5 5 7 6 4 6 11 10 5 2 2 4 9 14 15 14 16 16 16 17 17 18 21 22 22 23 22 24 25 24 24 24 23 21 21 23 22 22 21 21 21 18 18 20 18 18 18 18 17 16 15 13 11 12 12 12 12 11 11 10 10 10 9 9 9 10 9 9 9 10 13 13 13 12 11 10 8 7
1 1 1 2 2 2 2 1 1 3 4 3 2 3 3 3 3 2 6 5 5 8 7 4 7 10 7 5 2 3 6 8 12 14 15 16 16 16 18 18 20 22 22 23 22 23 24 24 22 21 22 24 23 22 23 22 21 19 19 20 18 16 18 18 18 18 16 15 15 14 13 12 12 11 11 11 11 11 11 10 9 9 9 9 9 9 9 10 12 14 15 15 13 12 10 9 8
1 2 2 2 1 1 1 0 1 3 3 1 1 5 5 2 3 1 4 6 6 7 5 3 8 7 5 5 2 4 7 7 12 15 16 16 15 16 17 18 20 20 21 22 21 22 23 22 20 19 21 23 23 23 23 22 20 18 18 19 19 17 17 17 17 16 15 15 15 14 13 12 12 11 11 11 11 12 11 11 10 9 9 9 10 10 11 13 15 15 15 15 13 12 11 9 8
2 1 2 2 0 1 1 0 1 2 1 2 0 5 5 3 3 1 6 8 5 2 3 4 6 5 5 6 2 5 7 9 12 15 17 16 15 17 17 18 18 18 20 21 21 23 22 20 20 22 23 23 24 24 23 22 21 20 19 19 19 17 16 16 16 16 16 15 15 14 13 13 12 12 11 11 11 11 11 11 11 11 11 11 11 12 14 15 15 15 14 13 12 12 11 10 8
2 1 1 1 1 1 2 1 1 2 2 2 2 3 3 4 2 1 5 5 4 3 3 5 2 1 5 7 4 9 11 13 14 16 17 15 16 17 17 17 17 17 18 19 21 23 20 19 20 21 23 23 24 25 23 22 22 22 20 18 17 17 16 16 17 16 15 15 14 13 12 12 12 11 11 11 11 11 11 11 11 11 11 11 12 13 14 15 13 13 12 12 11 11 10 10 9
1 1 1 1 2 2 3 2 1 2 2 1 1 4 4 5 3 2 2 1 5 3 2 2 4 4 4 5 4 13 16 16 16 17 17 15 16 16 16 16 16 16 17 17 18 18 16 17 18 20 21 21 23 24 23 23 23 21 19 17 17 17 16 16 16 15 15 15 13 12 12 12 11 11 10 10 10 10 10 10 10 10 11 11 11 12 13 12 11 11 10 10 9 8 9 9 9
1 1 1 2 2 2 3 4 3 1 0 0 2 5 5 6 4 3 3 5 8 4 4 3 4 3 2 1 9 20 19 17 18 19 18 17 17 16 15 16 16 17 17 16 15 15 15 16 18 19 19 19 20 21 21 20 20 18 17 16 17 17 17 16 16 15 15 15 13 12 12 11 11 11 10 10 9 9 9 9 9 10 9 10 10 11 11 10 9 9 8 7 6 6 7 7 8
1 2 2 3 2 2 4 5 4 0 2 2 4 4 4 5 3 4 4 8 7 4 5 3 4 3 3 8 16 22 20 19 20 20 20 18 17 16 15 16 17 17 17 16 14 15 16 17 18 18 17 17 18 18 17 17 16 16 15 16 17 18 18 17 16 15 14 14 13 12 11 11 11 11 10 10 10 9 8 9 9 9 8 8 9 9 9 9 8 7 6 5 4 4 4 5 6
1 2 2 3 3 2 3 3 2 1 3 5 4 1 3 3 1 3 3 4 5 3 3 2 4 5 7 12 17 20 21 21 22 22 21 20 19 18 17 16 17 17 17 16 14 14 15 16 16 16 16 16 15 15 15 14 15 16 17 17 17 17 17 16 15 14 13 12 12 11 10 10 10 10 9 9 10 10 9 9 9 9 8 7 8 8 8 7 6 5 4 3 3 2 3 4 5
2 1 3 3 3 2 3 4 5 3 4 7 4 1 3 2 2 2 2 3 3 3 3 4 4 7 10 13 16 19 21 21 22 22 21 21 21 19 19 18 17 16 16 15 14 14 15 15 15 15 15 14 14 15 15 14 13 15 17 17 17 17 16 15 13 12 11 10 10 9 9 9 9 9 10 9 9 10 10 9 9 9 9 8 7 7 6 6 5 4 4 3 3 2 3 4 5
2 2 3 2 3 3 4 5 6 3 3 5 3 3 4 1 2 1 4 3 3 6 6 7 9 12 14 14 16 18 20 21 22 22 20 21 20 18 17 17 16 16 14 14 14 14 14 14 13 14 14 14 14 15 15 14 13 13 14 14 15 15 14 14 12 11 10 9 9 9 8 8 8 8 9 9 9 10 10 9 9 8 8 8 7 7 6 5 4 3 3 3 2 3 4 5 6
2 3 2 3 4 3 4 4 4 3 1 3 3 4 4 1 2 4 5 5 3 2 5 7 10 15 17 16 16 16 18 18 20 20 18 19 19 18 16 15 15 14 13 13 13 13 14 13 13 14 14 13 13 14 14 14 14 12 12 12 12 13 12 11 10 10 10 9 9 8 8 8 7 7 8 8 8 8 9 8 8 7 7 7 7 7 7 6 5 3 3 2 2 3 5 6 6
3 2 2 3 5 4 4 2 3 3 2 4 3 3 2 1 2 3 6 7 2 4 5 7 10 16 19 18 17 17 18 18 19 20 17 17 19 17 16 17 17 14 12 12 11 12 14 13 13 14 14 14 13 14 13 14 15 13 12 11 10 10 9 8 9 9 9 8 7 7 7 7 7 7 7 7 7 7 7 7 7 7 7 8 7 8 8 7 6 4 3 3 3 4 6 6 5
4 3 1 3 5 6 5 3 2 2 5 5 1 3 4 4 3 0 4 3 4 7 6 8 11 15 18 18 17 18 19 18 19 19 15 12 14 14 13 16 16 12 11 11 11 13 14 14 13 13 13 14 13 13 14 14 14 14 12 12 12 11 9 9 10 9 8 7 6 6 6 5 6 6 7 6 6 6 6 6 6 7 8 8 8 8 8 7 5 4 4 3 3 4 4 4 4
5 5 1 1 4 6 5 3 5 5 7 3 1 6 7 4 2 2 2 1 4 4 3 10 13 15 16 17 18 16 16 17 15 14 9 8 9 11 12 13 13 11 10 10 12 13 13 14 13 12 13 14 14 12 12 13 14 14 14 15 15 12 11 10 9 7 7 6 5 5 4 4 5 5 5 5 5 4 4 4 4 6 7 7 8 8 8 7 5 5 4 3 4 4 3 3 3
5 6 2 2 3 5 3 4 6 4 4 2 4 7 4 0 3 3 2 1 1 2 7 11 14 15 15 16 17 15 14 13 10 10 11 16 19 19 16 14 13 13 13 11 13 14 12 13 13 13 13 14 15 13 13 13 14 14 15 16 14 12 12 10 8 7 6 6 5 5 4 4 4 5 5 5 5 4 3 3 3 5 6 7 8 7 7 7 6 5 4 3 3 3 3 3 3
3 5 3 5 4 4 2 5 3 2 3 6 7 6 1 1 3 3 2 3 5 6 9 11 13 14 15 14 14 13 11 10 12 14 16 20 22 20 15 15 13 11 14 14 13 14 13 12 12 12 12 13 15 14 14 14 14 14 14 15 13 11 11 10 9 8 7 6 6 5 5 5 5 5 6 6 6 5 5 4 5 5 5 6 7 6 7 7 6 5 4 3 3 3 3 3 3
2 3 3 4 4 5 5 5 4 2 3 7 7 3 3 2 3 2 4 7 7 8 10 11 12 12 13 12 12 10 8 11 13 14 15 15 17 22 21 18 14 10 11 14 12 12 14 13 12 12 12 13 14 14 13 13 15 15 14 14 11 10 10 10 9 7 7 7 6 6 6 5 5 5 6 6 5 5 5 6 6 5 5 6 6 6 6 7 6 5 4 4 3 3 3 3 3
1 2 3 3 3 5 5 3 3 3 3 6 7 3 2 4 3 2 6 9 9 8 9 10 11 11 11 10 9 8 8 11 12 12 14 13 13 19 20 19 20 16 13 13 12 12 14 14 12 11 12 13 12 12 13 13 14 15 14 12 9 9 9 8 8 7 7 7 7 6 6 5 5 5 5 4 4 4 6 6 6 5 5 5 5 5 6 6 5 4 3 3 3 2 2 3 3
1 2 2 2 2 3 4 1 1 2 2 5 6 4 3 6 4 5 8 11 11 10 9 10 11 10 9 9 8 8 9 9 10 12 14 14 14 15 17 18 21 21 17 14 13 15 16 12 9 7 8 11 12 11 12 12 12 13 13 10 9 10 9 8 7 7 6 6 6 5 5 5 5 5 5 3 3 4 6 6 6 5 5 5 5 5 5 5 4 4 3 2 2 2 2 3 3
0 2 1 1 2 3 2 2 2 3 1 4 6 5 4 4 3 7 10 11 12 10 10 11 10 10 9 8 7 7 7 8 10 13 13 14 15 15 17 20 21 21 20 17 15 17 15 10 10 10 8 8 10 11 12 11 10 11 11 10 10 10 8 7 7 6 5 4 4 4 5 5 5 5 5 4 4 4 5 5 5 6 6 5 5 5 5 4 4 3 3 2 2 2 1 2 2
1 1 2 0 2 2 1 1 4 3 2 3 6 4 4 4 1 8 11 10 11 9 9 11 11 11 10 8 7 7 6 8 11 14 15 16 14 14 18 23 24 22 20 19 19 19 16 12 14 16 11 9 9 10 12 12 11 10 9 9 9 8 8 9 8 6 5 4 3 3 4 5 5 5 5 5 5 5 5 5 6 6 6 5 4 4 3 3 3 3 3 2 2 2 1 2 2
1 1 2 1 2 2 2 1 2 2 2 2 7 3 3 1 1 7 11 11 11 8 9 10 10 10 11 8 6 7 7 8 10 13 17 18 17 16 16 21 25 25 22 20 20 21 20 14 12 12 12 13 11 10 12 12 11 10 10 9 9 9 9 9 7 7 5 4 3 2 3 3 4 4 4 4 4 5 4 4 5 5 4 4 3 3 3 3 2 2 2 2 3 3 2 2 2
1 1 1 1 2 2 2 1 1 1 1 4 6 6 4 1 1 8 11 11 10 9 9 10 9 9 9 9 7 7 7 7 8 11 17 20 21 19 17 18 22 24 23 22 22 23 21 16 14 16 18 18 15 14 14 13 12 12 11 10 10 9 9 9 8 7 6 4 3 3 2 2 3 3 3 3 3 3 4 4 5 5 4 3 3 2 2 2 2 2 3 2 3 4 3 3 3
3 2 1 1 2 3 3 2 1 1 2 4 6 8 8 1 2 9 11 11 10 8 8 9 9 9 9 9 10 9 8 7 8 11 14 16 17 17 17 15 17 21 21 21 23 22 19 17 18 21 21 19 18 17 16 15 16 14 12 10 11 10 9 10 10 8 7 5 4 4 3 3 3 3 3 3 4 3 2 3 4 4 3 3 2 2 2 2 2 2 3 2 3 4 4 4 4
3 2 2 1 2 3 4 3 0 1 2 4 5 7 7 3 4 9 10 10 10 8 8 8 8 9 9 9 10 10 9 7 9 11 12 14 14 13 14 12 13 16 18 21 23 22 20 18 18 19 19 19 19 18 18 17 16 14 12 12 12 11 12 11 10 8 8 7 6 5 4 4 5 5 5 5 5 4 3 3 2 2 3 3 3 2 2 2 2 3 4 4 4 4 4 3 3
3 2 2 2 2 3 3 1 1 1 3 2 3 4 2 2 4 8 9 9 9 8 8 8 8 9 8 9 9 10 10 7 8 11 11 12 13 11 11 12 13 13 16 21 23 20 20 18 17 17 18 17 16 16 18 17 15 12 12 14 14 14 14 12 11 10 9 7 6 5 4 5 6 6 6 6 5 5 4 4 3 2 2 2 2 2 2 2 3 3 3 4 3 3 4 3 3
1 2 2 2 3 3 2 1 2 1 3 0 1 3 2 1 2 5 6 8 9 9 8 8 9 8 7 9 9 9 8 6 7 10 10 12 13 12 11 12 14 15 16 20 19 15 14 14 15 15 16 15 13 14 15 15 13 13 14 15 16 15 14 12 11 10 8 7 6 5 3 3 5 5 6 6 6 5 5 4 4 3 3 2 2 2 2 3 3 3 2 3 3 2 2 3 3
2 1 2 1 2 3 2 2 3 2 1 1 2 3 3 3 1 1 2 3 4 6 7 7 7 8 8 8 9 9 8 7 8 10 11 12 13 13 12 12 15 16 16 15 12 11 11 12 14 14 15 15 15 15 14 14 14 15 16 16 16 15 14 11 10 9 8 6 5 3 2 2 3 4 5 5 5 5 5 4 4 4 3 3 3 3 3 3 4 4 3 4 4 3 2 2 2
2 1 2 1 0 1 1 1 3 3 2 2 3 4 3 2 2 2 1 2 2 3 5 6 7 8 8 8 9 9 9 9 9 10 10 12 13 14 13 13 15 16 16 13 11 12 13 14 15 16 15 15 17 16 14 15 16 15 15 15 15 13 13 11 9 8 7 6 4 3 2 2 2 3 3 4 4 5 5 4 4 4 4 5 6 5 5 4 4 4 3 3 3 3 3 2 1
2 3 4 2 1 2 1 1 3 1 2 3 2 3 3 2 3 4 1 1 1 3 5 7 8 7 5 6 9 10 11 10 10 10 10 11 12 13 14 14 15 15 16 14 14 15 15 17 19 17 16 17 18 18 16 18 18 17 17 15 13 12 12 11 10 9 7 6 4 4 4 4 3 3 4 4 5 5 5 4 4 4 5 7 7 7 7 6 5 4 4 4 3 3 3 3 2
2 5 8 5 3 3 2 1 1 2 2 4 2 2 3 2 2 3 1 2 4 4 6 10 11 10 7 8 10 10 10 10 10 10 10 10 12 14 15 15 16 16 16 15 16 17 16 18 19 17 17 19 19 18 18 19 19 18 17 16 14 13 12 10 10 10 8 6 5 5 6 5 5 5 5 5 4 4 4 4 3 4 4 6 7 8 9 7 6 6 6 5 4 3 3 3 3
1 3 7 6 4 2 2 1 0 1 1 2 2 1 2 2 3 2 1 3 5 3 6 9 9 11 10 10 11 10 10 9 9 9 9 11 13 15 16 17 17 16 14 14 16 18 18 17 17 17 18 18 18 19 19 20 19 17 15 15 15 15 13 12 11 11 9 8 7 7 7 7 6 6 6 5 4 3 3 3 2 3 3 4 6 8 9 8 8 8 7 6 5 4 4 4 4
2 1 5 7 5 4 3 1 1 0 0 1 2 2 2 3 3 1 2 4 5 5 7 8 8 11 11 12 13 13 12 10 9 10 10 12 14 16 17 16 14 12 11 12 16 19 18 15 16 17 18 18 18 19 20 19 17 16 14 15 16 16 15 14 12 11 10 9 9 9 8 8 7 6 6 5 4 3 3 2 1 2 3 4 6 7 8 8 8 9 9 8 8 6 5 5 4
0 2 5 5 4 3 2 2 2 1 1 3 2 3 2 2 1 0 1 2 4 4 6 7 7 9 11 12 12 13 13 12 11 11 11 14 14 13 11 9 9 8 8 9 12 14 16 15 17 18 18 18 19 20 20 18 16 16 16 17 17 16 14 14 13 12 11 11 11 10 9 8 7 6 6 5 4 3 2 1 1 2 3 4 5 5 7 8 8 9 10 10 10 9 7 6 5
2 5 6 6 4 4 3 1 3 1 2 3 1 4 2 3 1 1 1 0 0 1 2 4 5 6 9 10 10 11 10 11 12 11 12 12 4 9 16 18 15 11 8 7 7 10 13 15 17 19 19 19 20 21 20 18 16 16 16 17 17 16 15 14 14 13 13 13 12 11 9 7 6 6 6 6 5 3 3 2 2 3 4 5 6 6 7 8 9 10 10 10 10 9 8 7 7
6 5 5 6 4 2 2 2 2 1 2 1 2 4 2 3 2 1 1 0 2 4 4 3 4 5 6 7 8 7 6 7 9 9 8 5 16 24 24 20 14 11 10 7 7 9 13 15 15 16 17 19 20 21 18 16 16 15 15 15 15 16 16 15 15 15 14 13 11 10 8 6 7 7 7 7 6 6 5 5 4 5 7 7 7 7 7 8 9 9 10 10 10 10 10 10 10
3 2 3 4 2 1 1 1 0 3 2 1 2 3 3 3 2 1 2 2 3 5 6 7 8 7 7 6 5 4 2 2 5 6 6 10 16 16 16 15 12 11 13 12 8 7 9 13 13 12 14 17 19 19 17 15 15 14 14 14 14 14 14 14 15 15 15 13 10 9 8 7 9 9 8 8 8 8 8 8 9 9 9 9 8 7 7 8 8 9 10 11 11 12 12 12 12
1 2 4 4 2 1 2 1 1 3 1 1 2 2 2 2 1 2 5 5 5 5 6 8 10 9 8 7 3 1 1 2 3 5 7 9 8 9 12 14 16 17 13 9 8 8 8 10 10 9 10 15 18 17 15 14 14 14 14 14 13 12 12 13 13 14 14 12 9 8 9 10 11 11 10 9 9 9 10 11 11 11 11 11 10 9 8 8 8 10 11 11 12 12 11 11 12
3 4 3 4 3 2 2 1 1 2 1 1 1 1 1 1 1 3 6 7 7 6 6 6 6 6 5 4 4 5 5 4 5 6 7 7 8 9 9 12 19 20 17 15 14 11 11 11 10 8 8 12 15 15 14 13 14 14 14 13 11 11 11 11 11 12 12 11 9 8 9 11 12 12 10 9 9 10 10 11 11 12 12 12 11 10 9 9 9 10 10 11 11 11 10 10 11
2 1 1 3 3 2 3 3 2 3 1 2 1 2 2 2 1 2 5 6 5 5 5 4 3 4 7 8 8 9 9 8 8 8 9 9 10 10 8 10 17 20 19 19 17 13 11 10 10 11 13 15 13 13 13 12 13 13 13 12 11 10 10 10 10 10 10 10 9 8 9 11 12 11 10 9 9 9 9 9 10 11 12 12 12 11 9 8 8 9 10 10 11 10 10 10 10
1 0 1 2 2 2 1 0 1 1 1 2 2 2 1 1 1 1 2 1 1 2 3 4 5 6 7 9 10 10 10 10 9 9 10 10 10 9 6 6 8 13 17 18 16 13 9 7 9 11 14 17 15 13 12 13 13 12 12 12 11 11 11 11 10 10 9 9 9 9 10 11 11 10 10 9 8 8 8 8 8 9 10 11 11 11 11 9 9 9 10 10 11 11 10 10 10
3 2 3 1 0 3 3 1 2 1 2 2 1 1 0 2 2 3 3 3 2 3 3 5 5 6 7 8 8 9 10 10 10 9 9 8 7 8 11 9 5 7 9 14 15 11 7 5 5 7 12 16 15 12 12 13 13 12 12 11 11 12 13 13 11 10 11 10 10 10 10 11 11 10 10 9 8 8 7 7 7 7 8 8 9 10 11 10 10 10 10 10 10 10 10 10 10
3 3 5 4 1 2 2 2 2 0 3 2 0 1 1 2 2 2 2 2 2 3 3 5 5 5 7 7 6 8 9 10 11 11 10 7 6 11 13 9 4 2 3 11 13 11 11 8 4 8 14 17 14 13 13 13 12 12 12 11 12 14 14 13 12 11 12 12 12 11 11 11 11 11 10 9 8 7 6 5 5 5 6 6 7 7 8 9 10 10 10 9 9 9 9 10 10
1 2 4 3 2 2 2 1 2 3 3 1 1 1 2 4 3 1 4 4 3 3 2 4 5 5 6 5 5 6 6 7 8 8 8 6 7 11 11 11 9 5 6 10 12 12 14 10 8 12 17 16 13 12 11 10 10 10 10 11 13 15 14 14 14 13 13 13 13 12 11 11 11 10 10 9 8 7 6 5 4 4 4 4 5 5 6 7 7 8 8 8 8 7 8 9 9
4 4 3 1 1 2 2 1 1 3 3 1 2 1 3 4 3 4 7 6 5 6 4 5 6 4 3 3 3 3 3 4 4 3 4 6 8 9 9 10 10 9 9 9 9 10 12 13 14 15 17 15 12 11 10 9 9 9 10 11 13 15 14 15 16 15 14 13 13 13 11 11 11 10 9 9 9 8 7 5 4 3 3 3 4 3 4 4 5 5 5 5 5 5 6 6 7
2 3 3 1 1 1 1 2 1 1 3 2 2 3 2 1 1 3 4 4 5 6 5 5 5 5 4 3 2 2 3 4 4 3 4 6 6 6 7 8 10 12 10 9 8 9 14 17 18 17 17 16 14 12 11 10 9 9 10 12 14 15 15 16 17 17 15 13 13 13 12 12 12 10 9 9 9 8 7 5 4 3 2 2 2 2 2 2 2 2 2 2 2 2 2 3 4
1 2 2 3 3 2 3 3 1 0 1 2 2 2 2 2 1 1 1 1 3 5 5 5 4 5 3 2 2 2 3 4 4 5 5 4 6 8 8 10 11 12 11 10 10 11 14 16 15 14 14 15 15 13 11 10 9 9 10 11 12 13 14 16 18 17 16 14 14 14 13 12 12 11 10 9 9 8 6 5 4 3 2 0 0 1 1 2 2 2 2 2 2 2 2 1 0
Wind_Direction
178 163 152 146 141 145 137 249 203 122 248 257 238 258 193 183 338 247 329 324 209 44 327 48 81 95 93 91 124 98 44 92 132 86 89 82 129 142 148 153 151 146 147 150 154 160 158 158 157 154 151 148 148 149 146 143 144 141 141 142 145 148 148 145 145 145 144 144 139 135 132 129 126 125 123 123 126 126 126 125 127 128 127 127 130 132 130 131 131 132 130 128 127 127 128 127 128
157 147 144 137 130 156 148 329 238 137 220 248 229 208 94 119 188 183 359 359 114 116 92 79 83 70 49 65 81 88 55 35 45 60 82 114 123 133 148 150 148 146 147 150 154 157 159 160 158 156 152 149 150 149 146 143 143 142 141 140 142 144 145 144 142 142 141 138 131 128 127 126 125 126 125 122 123 123 125 127 127 129 131 133 128 127 127 127 129 130 130 130 127 128 130 130 133
149 145 149 141 105 359 126 51 252 166 205 231 232 183 103 153 173 140 15 7 171 182 157 88 74 44 23 88 42 20 64 63 84 90 109 127 125 135 147 146 146 146 146 149 153 156 159 161 160 157 153 151 150 149 148 146 144 143 142 141 141 142 143 143 141 142 139 132 127 128 128 128 129 131 131 127 125 121 121 125 127 128 132 136 130 126 123 121 125 128 128 130 129 130 134 137 137
145 146 160 155 109 316 142 176 230 180 206 220 256 158 159 177 162 173 349 341 287 219 254 107 87 23 21 80 53 18 79 89 96 105 126 134 136 142 146 147 146 145 148 150 153 154 158 163 162 158 154 152 151 149 149 148 147 145 145 144 144 144 144 143 142 140 133 129 132 136 135 134 135 135 134 132 129 123 121 123 127 128 126 125 125 127 123 119 124 127 128 130 130 133 138 143 139
145 141 167 196 176 161 139 152 103 208 214 188 272 122 157 184 169 245 288 307 295 233 215 150 115 91 71 62 52 88 96 105 100 109 118 130 139 143 147 147 146 147 149 151 152 152 159 165 161 158 156 153 151 150 150 149 149 148 147 146 145 144 144 143 139 134 130 134 139 139 136 136 136 135 135 134 129 124 122 125 130 132 128 125 124 123 119 119 124 127 129 130 132 135 138 144 144
147 133 135 162 88 110 155 186 193 221 223 160 241 125 146 222 264 275 280 288 287 231 203 155 116 129 107 62 65 53 32 147 118 116 121 135 143 144 147 147 147 147 148 151 151 151 160 166 161 158 157 153 151 150 151 151 150 149 147 146 145 144 143 141 136 133 134 139 141 138 136 136 133 131 133 133 129 126 128 133 136 134 131 131 127 122 118 118 122 124 128 132 136 140 140 144 148
157 142 83 126 100 337 203 216 220 226 214 159 253 310 261 257 244 277 300 303 276 177 195 155 135 127 109 93 111 38 341 279 154 133 136 141 144 145 147 148 147 146 149 151 149 150 159 164 160 158 155 152 152 151 152 152 151 148 146 145 145 145 144 141 137 135 138 141 142 140 138 137 133 131 133 134 132 133 135 137 138 133 131 130 126 125 123 124 126 127 133 140 141 146 147 148 150
159 148 347 165 125 339 207 237 242 227 231 192 259 280 278 280 238 270 287 288 280 173 161 157 148 119 105 143 124 44 20 57 131 130 137 141 144 146 147 148 147 146 149 149 148 150 156 159 156 155 153 152 152 149 149 150 149 146 146 146 146 147 146 143 138 137 140 142 145 145 141 138 134 134 137 139 139 138 136 136 134 131 130 128 128 129 125 125 131 135 142 144 141 144 148 154 153
123 60 206 181 142 201 224 249 254 229 263 268 267 256 268 280 245 252 250 236 245 192 154 159 180 126 135 135 107 54 48 107 124 129 138 140 143 146 147 149 146 144 146 148 146 147 152 152 149 149 151 150 148 144 143 146 147 146 145 146 148 148 148 147 141 138 140 142 146 145 140 139 137 140 143 142 142 142 140 138 135 132 131 131 132 130 124 122 130 141 146 142 141 143 149 156 156
78 13 164 141 154 205 235 236 249 229 252 273 280 265 273 284 246 230 238 234 208 171 147 149 146 130 138 136 113 73 102 130 126 130 142 143 144 145 145 146 144 142 144 146 145 146 150 149 147 147 148 147 143 141 141 143 147 151 149 148 150 151 152 149 142 140 142 145 147 143 140 143 142 142 146 144 143 145 144 140 137 136 134 134 134 132 125 122 127 138 139 136 142 148 152 153 149
138 41 157 156 180 211 229 230 246 260 269 291 283 266 276 287 266 228 222 220 186 149 148 154 126 127 127 130 123 95 141 145 135 135 144 146 145 144 143 144 145 145 144 146 146 148 151 153 152 148 152 152 147 147 147 148 150 154 152 149 153 154 152 147 142 142 146 147 146 143 144 147 145 145 149 150 149 148 148 145 142 142 139 136 134 134 130 126 127 131 133 133 139 144 143 139 136
175 135 186 187 203 216 226 252 280 288 287 299 310 326 337 292 292 244 208 185 157 144 153 183 147 133 121 132 141 137 150 151 144 141 145 147 145 146 147 146 149 148 144 147 147 149 152 153 150 149 159 160 156 157 153 151 148 146 147 147 154 156 148 146 146 143 143 143 141 141 145 147 145 145 150 153 149 145 145 145 145 145 143 139 135 133 131 129 128 128 129 131 133 134 133 132 130
193 149 172 184 226 193 150 277 281 295 287 220 315 336 341 346 12 17 171 146 142 147 147 162 152 134 109 132 136 162 163 155 149 145 147 148 147 149 148 148 149 147 145 148 148 149 150 145 142 151 163 163 163 163 155 153 150 144 147 151 155 156 149 147 143 138 138 141 141 143 145 145 142 141 146 148 140 135 137 138 141 142 139 136 132 130 128 127 126 124 125 127 128 128 128 127 125
194 167 190 186 56 149 161 182 258 250 184 140 120 322 338 34 1 71 122 122 118 116 98 104 140 123 113 136 156 193 174 156 152 146 150 150 148 149 146 147 147 147 146 148 149 149 147 145 148 157 163 165 166 164 156 157 157 151 152 154 154 153 148 141 136 137 141 143 143 146 145 142 139 140 145 145 139 133 132 134 137 135 131 128 126 127 128 129 125 122 123 123 124 124 124 125 124
186 151 163 175 152 181 200 209 263 216 158 87 56 319 352 51 339 95 94 112 88 25 83 92 43 14 155 167 190 195 169 154 155 148 149 148 146 148 145 145 145 148 147 148 150 150 152 153 155 159 160 162 164 163 158 157 156 153 153 152 151 148 142 137 137 141 143 143 143 145 143 140 139 142 145 144 140 134 130 133 133 126 121 120 121 124 128 131 126 121 123 123 122 123 124 126 127
149 131 135 202 201 186 194 198 222 198 161 114 38 334 5 47 32 47 357 145 117 41 33 73 349 346 186 194 167 165 159 153 155 148 145 144 143 146 146 144 144 149 151 152 152 152 154 152 154 158 157 158 160 160 159 158 155 152 150 149 149 146 141 139 140 142 143 143 144 146 143 141 140 141 142 141 139 134 130 131 127 118 114 114 116 121 127 130 127 124 125 125 122 120 122 127 130
140 178 181 210 211 191 183 189 194 181 357 252 25 6 12 30 40 87 46 82 111 72 30 36 349 336 230 157 131 145 152 154 154 149 144 144 144 145 149 150 149 151 154 156 154 150 150 151 155 158 156 157 158 157 157 156 152 150 150 150 150 148 145 143 143 144 146 146 147 149 147 145 145 144 142 140 138 135 130 126 118 109 105 109 113 118 123 126 126 129 130 128 122 117 117 124 130
185 184 207 218 190 176 186 195 199 205 336 327 1 10 23 23 49 134 105 78 93 77 53 42 35 44 91 108 131 142 151 156 156 154 151 151 152 153 156 157 157 154 154 155 154 149 149 154 157 155 155 157 156 150 148 149 151 152 151 152 149 146 146 145 146 147 146 147 150 153 153 151 150 148 145 143 141 138 131 119 110 107 106 108 114 118 124 127 130 134 134 133 126 119 118 123 130
188 150 224 219 179 183 205 214 216 239 301 321 335 10 26 359 175 173 172 119 126 105 67 58 72 93 109 124 140 146 154 160 163 164 161 161 161 162 162 161 162 158 154 152 151 151 151 157 157 155 155 154 148 139 141 147 153 154 150 149 145 144 148 148 148 149 148 149 154 159 158 157 153 147 144 145 144 140 133 125 124 127 126 119 118 122 128 135 142 143 139 136 133 131 132 131 130
174 188 234 213 200 233 237 235 232 231 290 314 324 351 352 332 195 217 195 149 177 195 149 150 166 160 143 144 152 153 160 166 170 172 170 170 168 167 166 164 164 159 154 150 151 154 154 157 159 157 154 150 143 142 149 147 146 150 148 148 148 149 151 151 152 153 154 156 161 164 162 161 156 150 147 150 149 143 139 142 147 144 137 132 131 133 136 141 145 143 141 138 140 140 142 139 133
155 206 228 143 169 234 242 236 243 239 269 292 317 331 327 50 140 183 157 159 237 233 199 187 190 176 159 157 162 162 166 172 178 179 174 173 171 168 165 161 159 155 153 151 152 155 154 155 158 154 146 143 150 157 159 152 145 147 147 149 151 154 157 157 158 158 161 166 170 171 168 166 163 160 157 158 154 148 153 158 154 146 142 146 147 148 148 148 148 144 140 138 143 137 137 144 139
168 207 192 136 162 241 259 244 252 240 246 275 294 319 322 53 149 153 171 212 241 245 225 211 188 172 167 165 166 168 173 178 183 184 176 171 172 166 160 154 150 151 151 153 153 154 154 153 153 150 140 141 160 168 165 160 154 152 154 151 149 154 156 159 163 164 167 172 175 176 173 172 170 165 162 161 156 156 166 165 154 151 161 169 164 161 158 157 165 167 154 143 139 133 137 142 138
218 211 162 186 190 240 254 222 235 199 207 256 269 315 341 300 287 154 198 235 285 324 271 221 185 172 172 168 168 174 179 184 186 187 180 172 172 164 158 154 148 146 148 152 149 151 155 154 151 148 142 146 165 172 167 166 160 162 165 158 159 157 153 169 178 172 171 173 175 180 179 178 172 165 163 163 159 161 168 163 161 171 183 189 183 175 165 165 177 183 173 158 142 136 140 136 128
239 227 216 215 192 227 233 213 234 197 228 245 304 314 275 252 284 206 210 251 321 308 263 197 173 168 173 173 176 181 184 187 188 188 179 164 163 156 153 149 142 136 137 147 152 153 155 155 153 150 147 150 166 175 168 167 163 167 174 174 179 172 166 188 190 177 174 175 180 188 186 181 172 168 170 167 164 170 173 165 173 194 198 200 198 191 180 173 181 186 178 169 157 149 143 131 118
230 229 231 193 193 235 239 243 250 233 242 239 203 266 261 229 202 253 249 359 339 314 169 162 161 166 177 180 183 186 188 190 184 178 158 112 101 92 91 108 120 130 140 149 156 157 157 158 158 157 156 155 165 174 169 170 167 169 181 185 184 179 180 193 189 180 181 184 195 199 199 196 187 184 181 176 177 190 192 166 168 199 205 209 207 201 195 183 181 190 187 180 178 172 161 148 132
216 213 209 214 239 263 255 257 245 232 244 177 192 241 263 182 172 230 256 68 70 141 149 157 162 171 180 184 187 187 189 186 161 139 110 88 83 75 81 115 136 149 158 163 161 162 161 160 165 164 161 161 165 172 173 175 174 174 182 184 183 182 184 189 188 187 193 200 207 206 205 209 208 204 200 194 190 198 203 166 161 189 196 204 204 203 202 191 184 191 194 196 203 205 201 191 173
186 192 225 237 266 299 256 260 242 216 238 188 209 248 13 89 199 218 200 145 157 154 157 164 170 179 183 186 188 186 184 169 137 123 113 104 105 109 124 148 150 148 160 168 169 171 170 164 170 170 165 165 168 173 176 178 180 184 187 185 183 183 184 186 189 191 199 206 209 208 210 214 214 212 210 203 195 197 193 172 166 178 179 183 186 190 199 196 189 192 197 208 225 233 237 223 203
159 183 253 250 279 277 229 258 258 226 234 191 203 244 80 125 214 220 156 157 168 163 165 174 182 184 184 186 185 180 170 155 140 126 120 120 128 135 144 151 145 139 157 169 174 176 180 176 175 175 170 169 171 173 177 183 185 189 192 189 184 184 187 187 189 195 204 211 213 215 218 220 215 214 215 207 198 190 180 170 165 173 173 170 171 175 188 194 195 203 209 216 234 243 258 255 228
143 160 265 265 310 265 211 242 254 198 215 166 170 206 165 191 198 135 150 160 166 171 174 180 185 184 182 182 175 165 154 147 138 122 120 132 140 136 138 149 152 147 150 170 187 184 186 185 180 179 173 170 172 174 181 188 188 188 189 186 183 188 191 191 197 205 207 211 216 221 220 213 214 220 222 211 190 175 173 169 165 179 185 175 172 170 177 189 196 206 215 225 237 242 265 270 253
166 133 275 281 309 253 189 144 107 188 205 150 175 232 213 208 198 147 160 167 165 171 179 183 186 183 181 175 159 148 147 143 134 125 125 135 139 126 125 141 154 156 155 171 195 196 194 191 182 180 177 174 172 176 185 186 185 186 184 180 187 192 191 191 194 194 195 205 217 222 214 206 214 223 223 208 182 175 175 169 163 183 199 187 182 179 180 185 188 197 203 219 230 231 254 258 252
140 143 168 307 246 212 168 131 152 190 163 148 205 250 227 221 199 162 170 173 171 174 177 183 188 186 184 168 151 142 142 140 130 126 123 125 132 132 136 147 158 166 167 175 193 200 199 194 186 193 214 203 179 181 189 186 183 186 185 187 191 187 177 174 171 172 185 196 204 213 212 211 217 223 227 222 207 194 184 176 171 183 191 185 182 180 179 180 180 192 196 200 211 209 228 235 232
44 194 180 173 222 231 313 165 190 215 60 149 204 242 247 245 157 160 172 177 181 181 177 183 190 190 188 168 150 148 137 122 117 119 114 115 137 157 158 160 167 174 173 177 190 197 197 193 192 196 215 222 196 186 188 187 189 186 187 189 181 165 155 157 160 168 184 185 183 206 216 213 214 218 222 224 226 217 196 182 179 179 176 174 180 180 179 180 178 193 203 191 180 180 183 201 208
43 264 201 178 197 240 318 128 203 262 46 197 212 227 242 248 96 163 169 179 185 185 178 182 189 190 192 182 159 153 140 116 116 126 128 138 167 180 174 171 175 181 182 184 190 194 194 187 186 194 212 224 213 192 188 190 190 179 176 173 157 149 153 156 159 163 167 169 168 193 209 194 194 202 200 205 219 214 195 186 183 178 172 173 178 186 190 187 177 180 189 176 164 168 169 177 183
181 265 201 206 218 233 264 132 65 330 208 228 222 219 222 33 98 169 171 181 187 185 181 181 186 187 191 191 182 170 150 130 142 150 151 165 178 180 182 181 180 185 189 192 195 197 194 180 182 197 209 222 215 194 190 187 175 165 161 154 145 147 153 151 149 147 148 157 158 162 169 150 165 173 162 165 176 190 190 188 191 188 183 180 179 188 182 169 172 167 164 161 149 156 168 180 180
174 193 192 204 223 225 265 271 67 44 245 222 203 212 220 227 127 173 175 185 189 191 186 182 184 184 187 192 194 188 161 151 175 168 162 177 183 180 186 184 184 189 192 196 198 201 197 182 192 202 205 216 212 195 185 172 160 156 149 140 141 147 148 146 144 141 140 144 143 141 134 120 125 124 120 133 133 141 161 164 179 184 178 180 192 196 176 166 178 164 154 140 127 148 176 183 176
143 178 209 205 235 239 265 269 326 359 260 203 197 216 215 179 153 174 179 186 193 194 189 188 185 183 189 193 194 192 175 169 188 176 168 184 189 187 189 185 187 190 193 199 197 202 203 191 194 202 207 214 206 188 174 160 151 149 143 138 142 147 146 144 141 137 131 128 127 125 121 112 104 99 100 110 110 107 111 116 129 147 157 167 187 195 180 180 171 149 134 126 127 151 182 181 166
128 150 205 221 248 264 278 266 25 275 233 211 216 222 206 171 171 179 184 188 194 197 195 195 192 188 192 197 195 194 188 178 187 185 179 188 191 188 185 181 183 182 189 197 198 204 205 196 190 194 204 205 193 180 167 157 153 148 143 143 146 147 146 144 140 136 127 121 117 112 111 109 103 98 97 97 93 89 87 76 69 79 110 131 144 148 147 147 142 138 127 126 139 168 195 196 172
135 183 224 226 223 260 299 258 343 273 214 8 206 185 98 68 168 179 189 191 197 204 202 198 198 195 196 205 203 197 186 166 190 196 185 188 191 188 185 179 179 178 185 194 200 205 201 196 192 195 204 198 191 188 170 160 160 155 149 148 148 147 147 146 141 136 126 116 109 99 95 95 94 89 91 99 96 86 73 53 40 41 34 33 52 72 93 112 119 119 115 122 128 133 189 194 176
124 166 224 200 209 265 281 235 335 349 198 56 130 147 68 42 89 159 211 201 189 199 207 206 200 199 206 214 208 198 177 162 200 209 193 194 193 189 189 184 183 183 186 193 198 198 191 190 192 202 210 194 190 197 179 163 162 158 154 150 149 148 150 150 142 135 127 119 115 110 97 87 79 70 73 88 92 79 62 48 41 45 36 24 36 55 71 94 105 105 104 112 113 102 113 157 193
167 163 215 197 211 265 165 146 351 6 24 61 123 119 66 59 109 133 341 360 64 154 197 208 208 207 209 214 211 202 184 174 204 216 201 198 195 191 194 191 187 185 186 186 181 185 189 188 190 202 209 192 188 194 179 164 161 157 152 148 149 150 150 152 144 136 135 138 149 155 145 118 84 52 55 69 69 59 55 58 57 54 46 43 49 60 73 83 91 100 109 108 107 110 111 108 176
203 201 219 226 226 241 247 16 327 309 58 55 102 127 90 78 146 156 100 2 155 157 184 204 216 217 202 204 211 208 200 188 197 216 214 202 196 195 196 194 191 187 186 182 173 178 187 189 192 199 201 195 192 189 176 168 162 154 147 143 142 142 145 151 148 145 152 161 165 157 146 129 106 85 78 73 61 51 51 54 53 48 41 46 53 58 69 77 75 75 87 100 105 111 124 126 118
216 214 216 216 200 222 257 336 317 198 109 47 353 185 117 66 142 162 108 213 197 181 198 209 214 218 214 213 214 208 203 194 192 212 223 210 198 197 195 194 193 189 185 178 172 177 187 191 192 194 196 194 192 186 176 172 167 157 151 147 146 143 144 150 154 157 162 161 151 138 130 119 106 99 92 82 71 56 43 37 41 43 36 42 51 55 62 70 76 78 84 95 99 103 120 130 121
208 209 203 193 173 180 218 245 242 181 126 50 334 231 146 96 108 119 310 221 197 192 213 218 217 220 220 220 221 214 206 198 189 198 218 223 211 201 195 191 192 190 181 171 170 179 191 194 192 194 197 193 189 185 178 174 170 161 157 160 162 158 153 156 161 161 159 153 142 137 131 120 111 104 96 90 83 64 42 32 25 22 25 39 50 60 65 67 75 85 89 90 88 89 92 94 108
185 158 157 158 165 181 183 160 124 88 215 161 355 354 161 142 119 146 249 201 191 208 221 220 219 222 223 223 223 220 216 206 192 193 210 225 219 207 201 191 184 178 165 164 172 182 191 193 190 193 193 189 187 184 178 175 169 157 157 163 164 163 160 158 160 157 154 149 142 138 132 124 121 112 102 100 90 68 45 44 21 11 29 44 55 68 73 72 76 80 81 80 79 82 86 86 94
38 111 121 133 142 145 139 127 114 73 237 187 16 354 192 172 76 321 203 177 186 207 224 230 228 225 228 228 223 221 219 212 206 201 205 220 227 223 205 166 140 135 142 159 170 179 186 186 186 188 188 185 184 181 176 175 168 154 156 161 159 160 159 155 157 156 153 147 141 136 130 126 125 120 115 110 95 74 63 74 62 36 40 49 64 74 76 80 83 81 79 77 73 73 83 92 91
130 128 103 95 85 76 71 89 111 101 227 187 18 340 230 193 283 355 23 55 315 300 259 252 252 245 239 238 232 225 220 217 215 209 211 220 215 51 57 66 73 86 112 138 149 163 173 178 182 182 182 182 181 178 174 172 167 155 157 160 157 157 155 153 155 156 153 149 143 138 134 134 133 132 128 116 98 85 82 79 58 49 54 63 76 80 79 82 84 83 80 75 69 69 80 94 96
141 135 102 95 71 53 62 41 68 168 207 156 360 331 290 213 209 281 245 332 338 318 303 290 292 287 268 255 249 238 228 226 222 213 209 150 81 71 69 71 75 86 91 99 120 148 160 165 173 175 176 179 178 176 172 172 169 160 161 163 160 159 157 157 158 158 158 153 147 145 143 146 148 145 136 117 101 93 90 92 86 78 74 75 79 80 80 81 81 79 76 73 71 74 83 93 97
135 121 126 126 70 35 96 35 350 206 196 76 354 318 272 225 191 219 264 307 324 300 296 302 307 306 302 295 277 254 233 211 212 204 164 103 90 100 117 130 139 111 75 60 79 126 155 159 164 170 175 178 178 176 172 174 174 168 166 167 165 165 163 164 165 165 164 159 154 151 146 152 156 150 137 119 106 102 103 102 95 87 82 80 82 85 84 82 79 79 80 81 80 81 84 88 93
139 128 147 156 136 159 202 219 216 229 228 51 338 304 240 242 283 294 296 316 327 313 300 304 307 308 313 317 304 229 137 139 163 163 134 117 114 125 130 137 139 126 107 96 100 115 140 151 152 161 186 187 180 177 175 177 181 176 171 172 172 173 171 171 171 170 168 163 160 157 150 154 159 152 140 126 114 110 108 102 95 90 86 85 86 87 87 83 83 87 90 89 87 85 85 86 90
180 160 166 172 150 154 191 176 218 253 234 73 319 281 216 228 303 291 299 319 329 327 320 319 322 332 356 19 61 85 87 95 103 108 108 115 129 130 122 128 142 152 158 154 142 134 141 150 147 156 209 213 188 178 178 179 184 182 177 177 179 182 181 179 177 173 169 166 165 163 153 155 161 157 146 134 123 116 108 100 96 92 86 83 83 84 84 84 86 92 93 92 90 87 86 89 91
174 159 159 177 171 180 209 200 197 214 149 93 189 210 204 180 114 309 303 317 330 340 344 356 32 64 72 76 81 83 86 86 84 86 90 104 124 130 139 151 162 170 161 148 152 158 156 170 177 179 210 226 206 184 181 181 184 186 185 183 187 193 195 190 183 177 173 168 167 166 160 161 165 163 155 145 134 125 115 106 101 94 86 81 79 80 82 84 89 94 95 91 89 87 88 92 95
129 38 145 187 197 151 129 32 143 181 132 126 192 224 268 265 246 254 246 260 346 17 25 58 85 96 94 91 92 91 90 90 89 89 91 95 98 107 151 199 197 180 159 144 150 155 157 189 198 186 204 221 213 195 190 187 186 189 191 191 195 203 206 200 190 182 177 171 168 167 166 169 173 171 165 156 146 138 128 119 110 99 91 84 81 80 81 84 88 93 95 91 87 85 87 93 97
132 177 178 164 48 114 118 121 63 7 203 163 193 233 252 268 229 176 168 164 122 86 74 85 92 105 108 104 111 114 113 116 118 118 114 111 112 140 174 190 220 217 169 130 132 144 154 186 200 191 211 224 218 204 199 193 190 194 198 202 206 211 212 207 199 188 179 172 168 166 168 175 182 182 176 167 158 150 139 131 123 109 99 92 88 85 82 83 85 89 93 92 89 87 86 90 96
145 183 162 129 74 83 114 158 85 72 208 169 154 231 189 207 199 146 180 195 120 94 76 91 97 105 109 111 122 125 130 136 137 138 135 133 167 184 178 156 127 248 167 129 143 158 155 163 205 214 223 233 222 204 199 195 195 199 204 213 217 215 213 209 203 192 181 174 171 169 172 179 185 187 186 180 171 160 147 139 132 120 111 104 100 93 86 82 82 85 90 92 91 90 89 92 98
61 141 128 128 194 168 148 170 153 186 209 172 160 250 242 212 209 186 203 208 163 136 112 122 132 122 110 109 115 116 116 123 131 143 138 140 194 198 170 139 115 120 161 166 171 166 159 179 227 225 226 237 229 215 211 206 207 211 215 225 224 216 212 209 203 193 184 180 176 174 176 183 187 187 189 188 179 168 155 139 128 121 113 110 109 102 90 81 77 77 81 87 92 95 95 97 103
62 111 106 25 284 171 175 155 166 198 197 175 165 197 234 216 209 197 194 196 180 164 157 159 159 158 152 141 140 127 104 111 127 143 127 144 191 198 160 139 124 128 156 170 167 171 187 212 234 233 232 241 243 240 236 224 220 222 223 227 223 215 211 209 204 195 187 184 181 178 178 184 188 188 190 190 184 175 164 149 135 118 105 104 107 104 91 78 72 69 68 71 78 90 101 103 107
118 150 147 128 78 88 174 100 38 224 179 171 176 192 222 208 181 200 185 184 190 176 163 165 175 190 197 189 186 148 107 121 126 111 115 141 162 161 141 135 129 134 150 161 169 195 215 221 229 234 234 237 238 236 229 222 222 223 223 223 219 212 209 209 206 197 189 185 184 183 182 186 190 190 190 191 188 182 172 162 152 135 116 102 95 91 75 57 53 53 50 43 37 55 95 104 108
169 170 170 149 128 145 165 153 148 315 164 174 177 194 190 87 44 305 307 258 212 175 159 164 178 195 197 158 140 103 96 109 107 108 119 115 104 107 120 131 134 138 147 159 174 201 218 221 225 228 228 231 232 230 227 225 223 221 220 220 215 211 210 210 207 200 192 188 188 188 187 189 193 194 194 193 192 187 179 173 170 167 163 151 8 4 2 350 339 335 333 322 316 307 287 286 242
Height
774 775 775 775 775 776 777 778 786 790 790 794 792 787 781 779 779 777 775 770 771 771 765 764 762 763 765 766 766 766 769 770 774 782 780 773 771 772 774 775 777 779 781 783 785 787 788 790 791 792 794 795 797 798 800 801 802 803 805 807 808 810 811 813 815 816 817 817 818 819 820 821 822 823 824 825 825 825 826 827 828 828 828 828 829 830 831 831 832 833 833 834 834 835 836 837 837
774 775 774 775 775 776 780 780 790 795 794 797 790 785 781 779 779 776 774 772 771 768 764 763 762 764 765 763 764 767 770 769 769 771 772 771 772 773 775 776 778 779 781 783 784 786 789 790 791 793 795 796 798 799 800 801 803 804 806 807 809 811 812 814 816 817 818 819 819 820 821 822 823 824 825 826 826 826 827 827 829 829 829 829 830 830 831 831 832 833 833 834 835 836 837 837 837
774 774 774 775 776 776 780 782 792 800 798 795 783 780 782 778 775 774 773 769 767 764 764 763 762 766 766 768 769 771 772 769 768 769 771 771 772 775 776 777 779 780 781 783 785 786 789 790 792 794 795 797 798 800 801 802 803 805 806 808 809 811 813 815 817 818 820 820 821 822 822 823 824 825 826 827 827 827 828 828 829 830 830 830 831 831 832 832 832 833 833 834 835 836 837 838 838
774 774 775 774 777 778 782 786 793 797 795 794 782 778 781 775 772 772 770 765 763 762 764 764 766 767 767 773 773 774 774 769 768 769 771 772 773 775 776 778 779 780 781 783 785 787 789 791 793 794 796 797 799 800 801 803 804 805 807 808 810 812 814 815 817 819 821 822 822 823 823 824 824 825 827 827 828 829 829 829 830 830 830 831 831 832 833 833 833 834 834 834 835 836 837 838 838
774 774 775 774 778 780 785 793 799 796 786 786 780 776 778 773 772 772 768 764 761 762 763 764 768 768 768 772 773 774 774 770 769 769 771 772 773 775 776 778 779 780 782 783 785 787 789 791 793 795 796 798 800 801 802 803 804 806 807 809 810 812 814 815 817 820 822 823 823 824 825 825 825 826 827 828 829 830 830 830 830 831 831 831 832 833 833 834 834 835 835 835 836 837 837 838 838
774 774 775 774 779 779 786 794 797 792 777 778 777 773 776 771 771 771 767 764 760 761 761 762 766 767 771 772 770 772 772 771 770 769 771 773 774 776 777 778 780 781 782 784 786 788 790 792 794 796 797 799 800 802 803 804 805 806 808 809 811 812 814 815 817 819 822 823 825 825 826 826 827 827 828 829 829 830 831 831 831 832 832 832 833 834 834 835 835 836 836 836 837 838 838 838 839
773 774 777 777 781 781 788 791 787 785 775 776 776 771 772 770 771 769 768 766 762 761 760 761 761 764 773 772 771 772 770 770 769 770 772 773 775 776 778 779 780 782 783 785 787 789 791 793 795 797 798 800 801 802 804 805 807 808 809 810 812 813 814 816 817 819 822 824 825 826 827 827 828 828 829 830 830 831 832 832 832 833 833 833 834 834 835 835 836 836 837 837 838 838 839 839 839
773 776 779 779 786 788 791 792 786 785 779 776 776 772 769 767 769 770 769 767 764 763 761 761 758 766 775 770 773 774 770 771 769 772 773 774 776 777 779 780 781 782 784 786 787 790 792 794 796 798 800 801 802 803 805 806 808 810 811 811 812 814 815 817 817 819 822 824 826 827 827 828 828 829 830 830 831 832 833 833 833 834 834 835 835 835 836 836 836 836 837 838 839 839 840 840 840
773 776 780 782 789 793 793 792 786 785 782 775 774 770 766 765 768 769 768 767 764 763 762 762 759 767 774 772 775 774 771 773 771 773 774 775 777 778 780 780 782 783 785 787 788 791 793 795 797 799 801 802 804 805 806 808 810 811 813 813 814 815 816 818 818 819 822 824 826 827 828 828 829 829 830 831 831 833 833 834 834 834 835 835 836 836 836 836 837 837 837 838 840 841 841 841 841
774 776 780 783 788 794 794 790 786 785 781 774 771 767 764 764 766 767 766 765 762 762 763 761 761 766 771 774 776 774 773 774 772 774 775 776 778 779 781 782 783 784 785 787 789 791 793 796 797 798 800 802 805 806 807 809 811 812 813 815 816 816 817 819 819 821 822 825 826 828 829 829 829 830 831 831 832 833 834 834 835 835 836 836 836 837 837 837 838 837 838 839 840 841 842 843 843
776 778 779 786 791 793 790 787 786 782 777 774 770 764 763 763 764 765 764 763 760 763 764 761 765 767 770 775 776 775 774 774 774 775 776 777 779 780 781 783 784 785 786 788 789 791 793 795 796 798 798 800 803 806 806 808 810 812 813 814 817 819 819 820 820 822 824 826 827 828 829 830 830 830 831 832 832 833 834 835 835 836 836 837 837 837 838 838 838 838 839 840 841 842 843 843 843
777 780 780 786 790 789 789 788 786 780 775 773 768 761 762 762 763 764 763 763 762 763 763 762 764 764 772 777 775 775 774 775 774 775 777 778 779 781 781 783 784 785 787 788 790 791 793 795 797 799 799 799 802 805 806 807 810 813 815 815 819 821 819 820 821 823 825 827 828 829 829 830 830 831 832 832 833 833 834 835 836 837 837 838 838 838 838 839 839 839 840 841 842 843 843 844 844
776 781 780 784 789 788 791 790 785 782 775 770 767 762 761 761 763 763 762 762 762 764 762 760 760 762 773 777 774 775 774 774 774 775 777 778 780 781 782 784 785 786 787 789 791 792 794 796 798 801 801 801 803 805 806 807 810 813 817 817 819 820 819 820 821 823 826 828 828 829 830 830 831 831 832 833 833 834 834 835 836 837 838 838 838 838 839 839 840 840 841 842 843 843 844 844 844
774 779 777 784 793 791 789 786 783 782 773 766 767 764 761 762 763 761 761 764 765 764 761 758 758 763 773 778 777 775 773 774 775 776 777 779 781 782 784 784 786 786 787 789 791 793 795 796 798 800 801 802 804 806 807 807 810 812 816 817 818 819 819 820 822 824 826 828 829 830 830 830 831 832 833 834 834 834 835 836 837 838 838 839 839 839 839 840 840 841 842 843 843 844 844 844 845
772 777 777 783 793 791 787 784 782 780 771 765 767 765 762 762 762 760 760 764 766 762 759 759 759 765 770 773 774 771 771 774 774 776 777 780 782 784 785 785 786 787 788 790 792 793 795 796 798 800 801 802 804 806 807 807 809 811 814 815 817 819 819 821 823 825 826 828 830 831 831 831 832 833 834 834 834 835 836 837 838 839 839 840 840 840 840 841 841 842 843 843 844 844 844 845 845
772 775 780 784 789 789 785 784 784 780 769 765 767 764 763 762 761 763 760 760 764 763 762 764 762 765 766 764 765 766 769 773 774 776 778 780 782 784 786 786 787 788 790 791 792 794 795 797 799 800 802 804 805 806 807 808 809 811 812 814 816 818 820 822 824 826 827 828 830 831 831 832 833 834 835 835 835 836 836 838 839 840 841 841 841 841 842 842 842 843 843 844 844 844 845 845 845
772 774 781 785 787 787 782 782 780 774 767 765 767 765 765 764 761 762 759 758 765 767 766 767 765 764 764 762 762 764 770 773 774 776 778 781 782 785 786 787 788 789 791 792 793 795 796 798 800 801 803 805 806 808 809 810 811 812 813 815 817 819 821 823 825 827 828 828 830 831 832 833 834 835 835 835 836 836 837 839 840 842 842 842 842 843 843 843 843 843 844 844 845 845 845 845 845
772 778 783 784 786 782 776 775 772 769 767 765 766 767 767 766 764 762 761 764 768 769 768 767 766 765 763 762 764 766 770 773 775 776 778 780 782 784 785 787 788 789 791 793 794 796 797 799 801 802 804 806 808 810 811 812 813 814 816 817 818 820 822 824 826 827 828 828 829 831 832 833 834 835 835 835 836 837 838 840 842 843 843 843 842 843 843 843 844 844 844 845 845 845 845 846 846
775 782 783 781 781 776 771 770 768 768 767 765 766 767 767 766 764 761 764 769 768 770 772 770 769 768 765 765 767 768 771 773 774 775 776 778 780 782 784 786 788 790 792 794 796 797 798 800 801 803 804 807 808 810 812 813 813 815 817 818 820 821 822 825 826 828 828 829 830 832 833 834 834 834 834 835 835 837 839 840 841 841 841 841 841 841 842 843 843 844 844 845 845 845 846 846 846
775 780 781 778 776 772 770 770 768 767 766 765 766 766 766 764 763 762 764 769 768 769 771 771 771 770 768 767 768 769 771 773 774 775 775 777 779 781 783 785 788 791 793 795 796 797 798 800 801 803 805 807 808 810 812 813 815 817 818 818 820 822 824 825 826 828 828 829 831 832 833 834 834 834 834 834 835 837 839 839 839 839 840 840 840 840 841 842 843 843 844 844 844 845 845 846 846
774 776 776 774 775 773 768 766 765 766 767 765 765 766 765 762 763 763 764 769 769 765 763 764 766 767 768 768 768 769 771 772 773 774 775 776 779 781 784 786 789 792 794 795 797 798 799 801 802 804 807 808 809 810 812 814 817 819 820 820 821 823 825 826 826 827 828 830 831 832 833 833 833 833 833 834 835 837 838 839 839 840 840 839 839 839 840 841 842 843 843 843 844 844 845 846 846
773 773 772 772 775 773 765 764 764 765 766 765 766 766 763 762 763 764 764 766 764 759 758 759 759 761 764 765 767 769 770 771 772 772 774 776 778 781 784 787 789 792 794 796 798 799 800 802 803 805 807 809 810 812 813 815 817 820 821 822 824 825 826 826 827 828 829 830 831 832 832 832 832 832 833 834 836 837 838 839 840 840 839 838 838 839 840 841 841 842 842 843 843 844 844 845 845
771 770 771 771 771 770 764 764 763 764 766 765 764 764 763 763 763 764 764 761 759 758 758 757 757 759 761 763 765 767 768 769 769 771 773 776 779 783 785 787 790 793 796 798 799 800 801 803 804 805 807 809 811 813 815 816 817 820 821 823 825 826 827 828 829 829 830 831 831 832 832 831 832 832 833 834 836 837 837 839 839 839 838 837 838 839 839 840 841 841 841 842 843 843 844 844 845
771 771 770 769 769 767 763 763 763 764 764 763 763 763 763 763 763 764 762 760 760 758 757 756 757 759 762 764 765 765 766 767 769 772 776 780 784 787 788 790 792 795 797 799 801 801 802 803 804 805 807 808 811 813 815 817 817 820 822 824 826 826 827 829 830 830 830 831 831 831 831 831 832 833 833 834 835 836 836 838 838 837 837 838 838 839 839 840 840 840 841 841 842 843 844 844 845
771 770 767 767 768 764 762 763 763 763 763 762 765 764 760 761 763 761 759 760 761 758 756 756 758 761 763 764 765 766 767 769 772 777 782 786 790 792 792 794 795 797 799 800 801 802 803 804 805 805 807 808 810 812 815 817 817 821 823 824 825 825 827 829 830 830 830 830 830 830 831 831 832 832 833 834 834 835 835 836 837 836 837 837 838 838 839 839 840 840 841 841 842 843 843 844 844
768 766 766 766 765 761 762 762 760 762 762 762 764 761 759 761 762 760 758 761 761 759 758 758 759 762 763 764 765 766 768 772 776 781 785 788 791 793 794 795 795 795 797 800 801 803 804 804 805 806 807 809 810 812 814 816 819 822 824 824 824 825 827 828 829 829 829 829 829 830 830 831 831 832 833 833 834 834 834 835 836 836 837 837 838 838 839 839 839 840 840 841 842 842 843 843 844
763 764 765 764 763 762 762 760 759 762 761 760 760 758 760 762 762 759 758 760 760 760 760 760 761 763 764 765 766 768 771 775 778 780 782 784 785 787 792 794 795 796 797 800 802 803 804 804 805 806 806 808 810 812 814 816 819 821 822 823 824 825 826 827 827 828 828 828 828 829 829 830 831 831 832 832 833 833 834 835 836 836 837 837 837 837 838 838 838 839 840 840 841 842 842 843 843
763 764 764 763 763 762 761 759 759 760 757 756 757 758 762 763 761 758 758 760 760 761 762 762 762 763 765 766 768 770 773 775 776 778 781 783 782 782 787 791 795 799 800 801 803 803 804 804 805 805 806 807 809 811 814 815 817 818 820 822 824 824 825 825 826 826 827 827 828 828 829 830 831 831 831 832 832 833 833 835 835 835 835 836 836 836 837 837 837 838 839 839 840 841 842 842 843
763 764 765 763 761 759 758 758 759 758 755 754 757 761 763 762 760 759 760 760 760 762 764 764 764 764 766 767 770 772 773 774 775 778 781 783 784 784 786 789 791 796 800 801 803 804 804 804 804 805 806 807 809 811 812 814 815 817 819 822 823 823 823 824 825 826 826 827 827 828 829 830 830 831 831 832 832 833 833 834 834 834 834 835 835 835 836 836 837 837 838 839 840 841 842 842 843
764 766 766 764 764 760 756 758 760 757 755 754 757 764 763 756 757 760 761 760 761 764 765 765 764 765 767 769 771 772 773 774 776 779 781 783 786 788 789 791 791 792 795 798 802 803 803 804 806 808 810 809 809 810 811 813 815 817 819 821 821 822 822 823 824 825 825 826 827 828 829 830 830 831 831 831 832 832 833 834 835 835 834 834 834 835 835 836 836 837 838 838 839 840 841 842 842
765 767 769 772 771 762 754 757 759 755 756 754 756 765 760 752 755 759 760 760 762 765 765 766 765 766 768 770 772 773 773 774 777 780 782 786 789 790 789 790 792 792 791 794 799 802 802 804 806 809 812 812 810 809 811 813 814 816 818 819 820 822 823 823 824 824 825 826 827 828 829 830 830 830 831 831 832 832 833 834 834 835 835 834 835 835 835 836 836 837 837 838 839 840 841 841 842
770 771 772 777 774 763 755 757 758 754 755 755 757 766 759 751 755 758 759 761 763 764 765 766 767 768 769 770 772 773 774 776 778 782 785 788 790 790 790 788 790 792 791 792 796 799 800 803 804 806 812 815 813 811 811 812 814 816 818 819 820 822 822 823 824 825 826 827 828 829 829 830 830 830 831 831 831 832 832 833 834 834 835 835 835 835 836 836 836 837 837 838 839 840 840 841 841
773 772 772 776 774 767 760 757 758 756 756 755 756 762 758 753 757 758 759 762 763 764 765 767 768 769 770 770 772 773 775 778 780 781 783 785 786 787 790 789 789 790 790 791 793 796 798 802 805 808 813 815 814 812 811 812 814 816 818 819 820 821 823 824 825 826 827 828 829 829 829 830 830 831 831 831 831 832 832 833 833 834 834 835 835 835 835 836 836 837 837 837 838 839 840 840 841
774 773 772 776 775 771 764 757 758 758 758 757 756 758 754 754 760 758 758 761 764 764 764 767 768 769 770 770 772 774 776 779 779 779 780 781 782 785 788 790 790 790 790 791 792 794 797 801 805 807 811 813 812 811 811 812 814 816 818 819 820 822 823 824 825 826 827 828 829 829 830 830 830 831 831 831 831 832 832 833 833 834 834 835 835 835 836 836 836 837 837 837 838 838 839 839 840
771 772 771 774 775 773 769 761 758 758 759 760 760 759 753 755 761 758 757 760 762 764 763 764 766 768 769 770 772 773 776 778 777 778 780 782 783 784 787 789 790 790 790 791 791 794 796 800 802 802 806 809 810 810 811 812 814 816 818 819 820 822 823 825 826 827 828 828 829 829 830 830 830 831 831 831 832 832 832 833 833 834 834 834 835 835 836 836 836 836 837 837 837 837 838 838 840
768 771 770 771 770 768 766 760 759 761 760 761 762 758 753 757 762 759 757 759 761 763 763 763 765 766 768 770 771 773 775 775 775 778 780 781 783 785 786 789 790 791 791 791 792 793 795 798 800 801 804 807 809 810 810 811 814 816 818 819 821 822 823 825 826 827 828 829 829 830 830 830 831 831 832 832 832 832 833 833 833 834 834 834 835 835 836 836 836 836 836 837 837 837 837 838 839
769 771 771 773 772 765 759 758 761 763 760 761 765 760 757 761 763 760 758 759 761 763 764 765 765 765 767 769 771 772 774 774 774 777 779 781 783 785 787 789 790 791 792 792 792 793 793 796 799 801 804 808 811 811 810 811 813 816 818 820 821 823 824 825 826 827 828 829 830 830 831 831 831 832 832 832 833 833 833 833 833 833 833 834 834 835 835 835 836 836 836 836 837 837 837 838 838
770 771 771 773 774 764 758 759 762 764 759 762 767 761 760 765 765 763 761 762 764 763 764 766 765 766 767 769 771 772 773 773 774 776 779 781 782 784 786 788 789 790 792 793 793 793 794 796 799 802 804 807 812 813 811 811 814 816 818 820 821 823 825 826 827 828 829 830 830 831 831 832 832 832 833 833 833 833 833 833 833 833 833 833 833 834 834 835 835 835 836 836 837 837 837 837 838
771 773 772 769 770 765 761 760 761 763 758 759 764 760 763 769 768 767 766 765 765 762 762 763 764 766 767 768 770 772 773 774 773 774 778 780 781 783 785 786 788 790 792 794 793 794 796 799 801 803 804 806 810 813 812 812 815 817 818 820 822 824 825 826 827 828 830 831 831 832 832 832 833 833 833 833 833 833 834 833 833 833 833 833 833 833 834 834 835 835 835 836 837 837 837 837 837
771 772 769 765 768 766 761 758 760 764 761 760 760 760 765 769 768 768 768 767 766 764 763 762 762 764 765 766 767 770 772 774 773 774 776 779 780 782 783 785 787 789 792 793 794 796 798 800 801 802 804 806 809 812 813 813 815 818 819 821 823 825 826 827 828 829 830 832 833 833 833 833 833 833 833 833 833 833 833 834 834 833 833 833 834 834 834 834 835 835 836 836 836 837 837 838 837
771 772 768 764 765 762 758 760 762 761 762 763 760 759 764 768 770 769 767 768 766 764 765 764 763 763 764 765 766 767 769 771 773 773 774 777 778 780 782 784 786 788 790 792 794 796 798 800 800 802 804 806 809 811 812 813 816 817 819 822 824 826 827 828 829 830 831 832 833 834 834 834 834 834 834 834 834 833 833 834 834 834 834 834 834 834 834 835 835 836 836 836 836 837 837 838 838
769 767 762 759 759 758 759 762 762 759 762 767 767 766 767 767 769 769 768 768 766 765 766 765 764 763 764 766 765 766 767 769 771 773 773 775 777 779 780 782 784 786 788 790 793 795 797 798 799 801 804 806 808 810 811 813 815 817 818 821 823 825 827 829 829 830 832 833 834 835 835 835 835 835 835 835 835 834 834 834 834 834 834 834 835 835 835 835 836 836 836 836 836 837 837 837 838
764 759 756 759 759 759 760 759 760 763 766 771 772 769 769 766 765 770 771 768 767 768 768 765 764 763 764 765 764 764 766 768 770 772 773 773 775 776 777 780 782 785 787 790 792 795 796 797 799 801 803 805 808 810 811 812 814 816 818 820 823 824 826 828 830 831 832 833 834 835 836 836 836 836 836 836 836 835 835 835 835 835 835 836 836 836 836 836 836 836 836 836 836 837 837 837 837
758 756 758 761 760 759 761 758 760 767 768 769 769 765 768 768 764 770 773 768 767 769 767 765 764 764 763 763 762 762 764 766 770 772 773 772 772 773 775 778 783 786 789 791 793 794 795 796 799 801 803 805 808 809 811 812 814 815 817 820 822 824 826 828 830 831 832 834 834 835 836 836 836 837 837 837 837 837 837 836 836 836 837 837 837 837 837 837 837 837 837 837 837 837 837 837 838
756 762 763 763 762 761 761 759 763 773 771 767 768 766 770 771 764 764 767 764 764 765 764 764 763 763 762 761 760 760 762 764 767 769 771 770 771 774 777 781 786 789 792 794 794 794 796 797 798 800 802 804 806 809 810 812 812 813 816 819 821 824 826 827 830 831 833 833 834 835 835 836 837 837 838 838 838 838 837 837 837 837 837 837 837 838 838 838 838 838 838 838 838 837 837 838 838
759 766 763 763 767 766 765 763 763 771 773 771 775 775 774 773 765 762 763 761 761 764 763 763 763 762 761 760 760 759 761 763 765 767 769 771 776 781 784 787 791 793 796 797 797 797 797 799 800 800 802 803 806 808 810 811 812 812 815 818 820 823 825 827 829 831 833 833 834 835 835 836 837 837 838 838 838 838 838 838 838 838 838 838 838 838 838 838 838 838 839 839 839 838 838 839 839
760 760 757 759 764 763 766 769 766 771 777 778 785 786 779 775 770 765 766 765 767 769 766 764 764 763 761 760 760 761 762 764 765 767 770 775 780 783 786 792 795 797 799 800 801 801 800 800 801 802 802 804 806 808 809 810 811 812 815 817 820 822 824 827 829 831 832 833 834 835 836 837 837 838 838 839 839 839 839 839 839 839 838 838 838 838 839 839 839 839 839 839 839 839 840 840 840
759 755 755 761 766 766 769 772 772 779 784 783 791 794 783 777 771 766 766 768 771 773 770 767 766 764 763 762 762 762 763 764 765 768 772 777 779 780 783 787 791 795 800 804 804 804 803 801 800 802 804 805 806 807 808 810 812 813 815 817 820 822 823 825 828 830 832 833 834 836 836 837 838 839 839 839 839 839 840 840 840 840 839 839 839 839 840 840 840 840 840 840 840 841 841 842 842
758 756 759 767 776 780 781 781 782 784 784 785 792 791 782 776 770 768 768 768 770 773 772 771 770 768 766 764 763 763 764 765 767 770 773 776 778 780 782 783 786 791 796 802 806 804 804 802 800 803 806 806 805 806 807 809 812 813 815 818 820 822 823 825 827 829 830 832 834 835 837 838 839 840 840 840 841 841 841 841 841 841 841 840 840 841 841 841 841 841 841 841 842 842 842 843 844
757 757 760 768 781 793 797 797 798 792 783 788 793 787 781 777 771 771 771 769 770 772 772 772 772 771 769 767 765 765 766 768 770 773 775 777 778 780 782 783 785 788 790 796 801 802 802 802 800 803 809 809 805 805 806 808 812 814 816 818 820 822 823 825 826 827 829 831 833 835 836 838 839 840 841 841 842 842 842 842 842 842 842 842 842 842 842 843 843 843 843 843 843 843 844 844 845
759 758 757 762 770 781 788 788 788 786 783 788 790 785 781 776 773 774 772 771 772 771 772 773 772 771 770 768 768 768 770 772 774 776 777 778 780 781 785 785 784 784 788 792 796 798 798 799 799 800 807 811 807 805 806 808 811 814 816 818 820 822 823 825 826 827 828 830 832 834 836 838 840 841 842 842 843 843 844 844 844 844 844 844 843 844 844 844 844 844 844 844 844 845 845 845 846
766 763 757 761 759 763 783 792 788 785 784 787 788 784 780 775 773 775 775 774 774 773 774 773 772 772 770 770 770 770 773 775 777 779 779 781 781 782 786 789 787 785 787 790 793 794 796 798 799 799 805 810 807 804 805 807 809 812 815 817 819 821 823 824 825 827 828 829 831 834 836 838 840 841 842 843 844 844 844 844 845 845 845 845 845 845 845 845 845 845 846 846 846 846 846 847 847
763 763 758 762 759 758 780 798 801 795 786 788 792 786 779 775 771 771 774 774 774 775 775 775 774 772 771 771 771 771 772 774 776 778 779 781 781 780 782 786 790 790 789 790 792 793 795 798 800 803 807 809 805 804 805 806 808 810 813 816 818 820 822 823 825 826 828 830 831 833 836 837 839 841 842 843 844 845 845 845 845 845 845 845 845 845 846 846 846 846 846 847 847 848 848 848 849
754 758 755 760 764 763 769 783 797 797 787 789 796 791 784 779 772 769 772 773 773 775 775 776 776 773 772 773 771 770 770 771 773 775 776 779 780 780 777 779 788 794 793 790 790 792 794 796 799 802 806 807 804 804 805 805 807 809 812 815 818 820 821 823 825 827 828 829 831 833 835 837 839 841 842 843 844 845 845 846 845 846 846 846 846 846 846 846 846 846 847 847 848 848 849 849 850
747 748 749 756 763 766 770 779 787 790 792 794 796 797 790 778 771 769 769 770 772 775 776 776 777 775 774 775 774 773 773 773 775 775 774 777 782 782 775 775 786 794 794 791 790 792 793 794 795 797 801 804 804 803 803 804 806 809 812 815 817 819 821 823 825 826 828 829 831 833 835 837 839 840 842 843 844 845 845 846 846 846 846 846 846 846 846 846 846 847 848 848 849 849 850 850 851
749 749 753 758 761 764 769 775 774 776 792 797 793 794 784 768 767 766 764 767 770 773 776 777 777 777 777 778 777 776 777 778 778 777 775 776 781 782 776 776 785 791 793 792 791 792 792 792 793 794 798 801 802 801 802 805 807 809 812 814 817 819 820 822 824 826 827 828 831 832 834 837 838 840 841 842 843 844 844 845 846 846 846 846 846 846 846 846 846 847 848 849 850 850 850 851 851
754 754 758 762 767 770 769 776 779 775 784 793 792 790 774 764 769 766 761 766 768 770 774 776 777 777 777 778 778 778 778 778 778 778 778 779 781 781 777 780 786 789 791 793 793 793 792 791 793 795 798 800 801 802 804 805 807 809 812 814 816 818 819 821 823 825 826 828 830 832 834 836 837 838 840 841 842 843 844 844 845 845 845 846 846 846 846 846 846 847 848 849 850 851 851 852 852
754 753 755 759 765 767 767 778 788 781 779 785 787 781 768 767 777 773 768 770 769 770 774 775 776 776 777 779 779 779 779 779 779 778 779 781 782 781 780 783 787 788 790 792 793 792 790 791 794 796 798 799 800 802 803 804 806 808 811 814 815 817 818 820 822 824 825 827 829 831 832 834 836 837 839 840 841 842 842 843 843 844 844 845 845 845 845 846 846 847 848 849 850 851 852 853 853